date,time,SUV Intensity [MED/Hr],UV Index,Daily total [MED],Since Last [MED]
19/07/2022,00:10:34,0.000,0.0,0.0,0.0
19/07/2022,00:11:34,0.000,0.0,0.0,0.0
19/07/2022,00:12:34,0.000,0.0,0.0,0.0
19/07/2022,00:13:35,0.000,0.0,0.0,0.0
19/07/2022,00:14:35,0.000,0.0,0.0,0.0
19/07/2022,00:15:36,0.000,0.0,0.0,0.0
19/07/2022,00:16:35,0.000,0.0,0.0,0.0
19/07/2022,00:17:35,0.002,0.0,0.0,0.0
19/07/2022,00:18:35,0.000,0.0,0.0,0.0
19/07/2022,00:19:35,0.000,0.0,0.0,0.0
19/07/2022,00:20:43,0.001,0.0,0.0,0.0
19/07/2022,00:21:35,0.000,0.0,0.0,0.0
19/07/2022,00:22:35,0.001,0.0,0.0,0.0
19/07/2022,00:23:35,0.001,0.0,0.0,0.0
19/07/2022,00:24:34,0.000,0.0,0.0,0.0
19/07/2022,00:25:43,0.001,0.0,0.0,0.0
19/07/2022,00:26:36,0.000,0.0,0.0,0.0
19/07/2022,00:27:35,0.000,0.0,0.0,0.0
19/07/2022,00:28:36,0.001,0.0,0.0,0.0
19/07/2022,00:29:34,-0.000,0.0,0.0,0.0
19/07/2022,00:30:35,0.001,0.0,0.0,0.0
19/07/2022,00:31:35,0.001,0.0,0.0,0.0
19/07/2022,00:32:35,0.000,0.0,0.0,0.0
19/07/2022,00:33:35,0.001,0.0,0.0,0.0
19/07/2022,00:34:35,0.001,0.0,0.0,0.0
19/07/2022,00:35:35,0.002,0.0,0.0,0.0
19/07/2022,00:36:43,0.002,0.0,0.0,0.0
19/07/2022,00:37:34,0.001,0.0,0.0,0.0
19/07/2022,00:38:49,0.001,0.0,0.0,0.0
19/07/2022,00:40:36,0.001,0.0,0.0,0.0
19/07/2022,00:41:43,0.001,0.0,0.0,0.0
19/07/2022,00:42:34,0.001,0.0,0.0,0.0
19/07/2022,00:43:35,0.001,0.0,0.0,0.0
19/07/2022,00:44:43,0.001,0.0,0.0,0.0
19/07/2022,00:45:34,0.001,0.0,0.0,0.0
19/07/2022,00:46:35,0.001,0.0,0.0,0.0
19/07/2022,00:47:34,0.002,0.0,0.0,0.0
19/07/2022,00:48:34,0.001,0.0,0.0,0.0
19/07/2022,00:49:44,0.000,0.0,0.0,0.0
19/07/2022,00:50:35,0.001,0.0,0.0,0.0
19/07/2022,00:51:35,0.001,0.0,0.0,0.0
19/07/2022,00:52:43,0.001,0.0,0.0,0.0
19/07/2022,00:53:35,0.002,0.0,0.0,0.0
19/07/2022,00:54:35,0.002,0.0,0.0,0.0
19/07/2022,00:55:35,0.001,0.0,0.0,0.0
19/07/2022,00:56:35,0.001,0.0,0.0,0.0
19/07/2022,00:57:35,0.001,0.0,0.0,0.0
19/07/2022,00:58:35,0.001,0.0,0.0,0.0
19/07/2022,00:59:35,0.001,0.0,0.0,0.0
19/07/2022,01:00:43,0.001,0.0,0.0,0.0
19/07/2022,01:01:34,0.001,0.0,0.0,0.0
19/07/2022,01:02:35,0.000,0.0,0.0,0.0
19/07/2022,01:03:35,0.001,0.0,0.0,0.0
19/07/2022,01:04:35,0.001,0.0,0.0,0.0
19/07/2022,01:05:43,0.001,0.0,0.0,0.0
19/07/2022,01:06:51,0.001,0.0,0.0,0.0
19/07/2022,01:08:36,0.002,0.0,0.0,0.0
19/07/2022,01:09:35,0.001,0.0,0.0,0.0
19/07/2022,01:10:35,0.001,0.0,0.0,0.0
19/07/2022,01:11:43,0.001,0.0,0.0,0.0
19/07/2022,01:12:35,0.002,0.0,0.0,0.0
19/07/2022,01:13:35,0.001,0.0,0.0,0.0
19/07/2022,01:14:35,0.001,0.0,0.0,0.0
19/07/2022,01:15:35,0.001,0.0,0.0,0.0
19/07/2022,01:16:43,0.001,0.0,0.0,0.0
19/07/2022,01:17:35,0.002,0.0,0.0,0.0
19/07/2022,01:18:35,0.001,0.0,0.0,0.0
19/07/2022,01:19:35,0.001,0.0,0.0,0.0
19/07/2022,01:20:35,0.001,0.0,0.0,0.0
19/07/2022,01:21:35,0.001,0.0,0.0,0.0
19/07/2022,01:22:35,0.001,0.0,0.0,0.0
19/07/2022,01:23:35,0.001,0.0,0.0,0.0
19/07/2022,01:24:43,0.001,0.0,0.0,0.0
19/07/2022,01:26:35,0.002,0.0,0.0,0.0
19/07/2022,01:27:43,0.001,0.0,0.0,0.0
19/07/2022,01:28:35,0.002,0.0,0.0,0.0
19/07/2022,01:29:35,0.001,0.0,0.0,0.0
19/07/2022,01:30:35,0.000,0.0,0.0,0.0
19/07/2022,01:31:35,0.001,0.0,0.0,0.0
19/07/2022,01:32:43,0.000,0.0,0.0,0.0
19/07/2022,01:33:35,0.001,0.0,0.0,0.0
19/07/2022,01:34:35,0.002,0.0,0.0,0.0
19/07/2022,01:35:35,0.001,0.0,0.0,0.0
19/07/2022,01:36:35,0.001,0.0,0.0,0.0
19/07/2022,01:37:35,0.001,0.0,0.0,0.0
19/07/2022,01:38:35,0.002,0.0,0.0,0.0
19/07/2022,01:39:35,0.002,0.0,0.0,0.0
19/07/2022,01:40:35,0.002,0.0,0.0,0.0
19/07/2022,01:41:35,0.001,0.0,0.0,0.0
19/07/2022,01:42:35,0.002,0.0,0.0,0.0
19/07/2022,01:43:35,0.002,0.0,0.0,0.0
19/07/2022,01:44:35,0.001,0.0,0.0,0.0
19/07/2022,01:45:35,0.001,0.0,0.0,0.0
19/07/2022,01:46:35,0.001,0.0,0.0,0.0
19/07/2022,01:47:35,0.001,0.0,0.0,0.0
19/07/2022,01:48:35,0.002,0.0,0.0,0.0
19/07/2022,01:49:35,0.002,0.0,0.0,0.0
19/07/2022,01:50:35,0.002,0.0,0.0,0.0
19/07/2022,01:51:35,0.003,0.0,0.0,0.0
19/07/2022,01:52:35,0.002,0.0,0.0,0.0
19/07/2022,01:53:35,0.002,0.0,0.0,0.0
19/07/2022,01:54:35,0.001,0.0,0.0,0.0
19/07/2022,01:55:35,0.001,0.0,0.0,0.0
19/07/2022,01:56:35,0.002,0.0,0.0,0.0
19/07/2022,01:57:35,0.002,0.0,0.0,0.0
19/07/2022,01:58:35,0.002,0.0,0.0,0.0
19/07/2022,01:59:35,0.001,0.0,0.0,0.0
19/07/2022,02:00:35,0.002,0.0,0.0,0.0
19/07/2022,02:01:35,0.002,0.0,0.0,0.0
19/07/2022,02:02:35,0.003,0.0,0.0,0.0
19/07/2022,02:03:35,0.002,0.0,0.0,0.0
19/07/2022,02:04:35,0.001,0.0,0.0,0.0
19/07/2022,02:05:36,0.001,0.0,0.0,0.0
19/07/2022,02:06:37,0.002,0.0,0.0,0.0
19/07/2022,02:07:35,0.002,0.0,0.0,0.0
19/07/2022,02:08:43,0.002,0.0,0.0,0.0
19/07/2022,02:09:36,0.002,0.0,0.0,0.0
19/07/2022,02:10:45,0.003,0.0,0.0,0.0
19/07/2022,02:12:36,0.002,0.0,0.0,0.0
19/07/2022,02:13:36,0.003,0.0,0.0,0.0
19/07/2022,02:14:35,0.001,0.0,0.0,0.0
19/07/2022,02:15:35,0.002,0.0,0.0,0.0
19/07/2022,02:16:35,0.001,0.0,0.0,0.0
19/07/2022,02:17:35,0.002,0.0,0.0,0.0
19/07/2022,02:18:35,0.003,0.0,0.0,0.0
19/07/2022,02:19:35,0.002,0.0,0.0,0.0
19/07/2022,02:20:35,0.002,0.0,0.0,0.0
19/07/2022,02:21:43,0.002,0.0,0.0,0.0
19/07/2022,02:22:35,0.002,0.0,0.0,0.0
19/07/2022,02:23:35,0.001,0.0,0.0,0.0
19/07/2022,02:24:35,0.002,0.0,0.0,0.0
19/07/2022,02:25:35,0.002,0.0,0.0,0.0
19/07/2022,02:26:43,0.002,0.0,0.0,0.0
19/07/2022,02:27:35,0.001,0.0,0.0,0.0
19/07/2022,02:28:35,0.002,0.0,0.0,0.0
19/07/2022,02:29:44,0.002,0.0,0.0,0.0
19/07/2022,02:30:35,0.003,0.0,0.0,0.0
19/07/2022,02:31:35,0.002,0.0,0.0,0.0
19/07/2022,02:32:35,0.002,0.0,0.0,0.0
19/07/2022,02:33:35,0.002,0.0,0.0,0.0
19/07/2022,02:34:35,0.002,0.0,0.0,0.0
19/07/2022,02:35:35,0.003,0.0,0.0,0.0
19/07/2022,02:36:36,0.003,0.0,0.0,0.0
19/07/2022,02:37:44,0.002,0.0,0.0,0.0
19/07/2022,02:38:35,0.001,0.0,0.0,0.0
19/07/2022,02:39:35,0.003,0.0,0.0,0.0
19/07/2022,02:40:44,0.002,0.0,0.0,0.0
19/07/2022,02:41:35,0.002,0.0,0.0,0.0
19/07/2022,02:42:43,0.002,0.0,0.0,0.0
19/07/2022,02:43:35,0.002,0.0,0.0,0.0
19/07/2022,02:44:35,0.002,0.0,0.0,0.0
19/07/2022,02:45:44,0.002,0.0,0.0,0.0
19/07/2022,02:46:35,0.001,0.0,0.0,0.0
19/07/2022,02:47:42,0.002,0.0,0.0,0.0
19/07/2022,02:48:43,0.001,0.0,0.0,0.0
19/07/2022,02:49:34,0.001,0.0,0.0,0.0
19/07/2022,02:50:35,0.003,0.0,0.0,0.0
19/07/2022,02:51:35,0.002,0.0,0.0,0.0
19/07/2022,02:52:35,0.003,0.0,0.0,0.0
19/07/2022,02:53:35,0.001,0.0,0.0,0.0
19/07/2022,02:54:36,0.002,0.0,0.0,0.0
19/07/2022,02:55:35,0.001,0.0,0.0,0.0
19/07/2022,02:56:36,0.002,0.0,0.0,0.0
19/07/2022,02:57:35,0.002,0.0,0.0,0.0
19/07/2022,02:58:36,0.002,0.0,0.0,0.0
19/07/2022,02:59:35,0.002,0.0,0.0,0.0
19/07/2022,03:00:35,0.002,0.0,0.0,0.0
19/07/2022,03:01:35,0.002,0.0,0.0,0.0
19/07/2022,03:02:36,0.002,0.0,0.0,0.0
19/07/2022,03:03:35,0.002,0.0,0.0,0.0
19/07/2022,03:04:36,0.003,0.0,0.0,0.0
19/07/2022,03:05:35,0.002,0.0,0.0,0.0
19/07/2022,03:06:35,0.003,0.0,0.0,0.0
19/07/2022,03:07:35,0.002,0.0,0.0,0.0
19/07/2022,03:08:36,0.003,0.0,0.0,0.0
19/07/2022,03:09:35,0.002,0.0,0.0,0.0
19/07/2022,03:10:36,0.001,0.0,0.0,0.0
19/07/2022,03:11:35,0.004,0.0,0.0,0.0
19/07/2022,03:12:35,0.002,0.0,0.0,0.0
19/07/2022,03:13:36,0.002,0.0,0.0,0.0
19/07/2022,03:14:35,0.003,0.0,0.0,0.0
19/07/2022,03:15:35,0.002,0.0,0.0,0.0
19/07/2022,03:16:35,0.004,0.0,0.0,0.0
19/07/2022,03:17:35,0.002,0.0,0.0,0.0
19/07/2022,03:18:36,0.002,0.0,0.0,0.0
19/07/2022,03:19:35,0.002,0.0,0.0,0.0
19/07/2022,03:20:35,0.003,0.0,0.0,0.0
19/07/2022,03:21:43,0.003,0.0,0.0,0.0
19/07/2022,03:22:35,0.002,0.0,0.0,0.0
19/07/2022,03:23:35,0.003,0.0,0.0,0.0
19/07/2022,03:24:35,0.002,0.0,0.0,0.0
19/07/2022,03:25:35,0.003,0.0,0.0,0.0
19/07/2022,03:26:35,0.003,0.0,0.0,0.0
19/07/2022,03:27:35,0.002,0.0,0.0,0.0
19/07/2022,03:28:35,0.002,0.0,0.0,0.0
19/07/2022,03:29:43,0.002,0.0,0.0,0.0
19/07/2022,03:30:35,0.002,0.0,0.0,0.0
19/07/2022,03:31:36,0.003,0.0,0.0,0.0
19/07/2022,03:32:44,0.004,0.0,0.0,0.0
19/07/2022,03:33:35,0.003,0.0,0.0,0.0
19/07/2022,03:34:35,0.003,0.0,0.0,0.0
19/07/2022,03:35:36,0.003,0.0,0.0,0.0
19/07/2022,03:36:35,0.003,0.0,0.0,0.0
19/07/2022,03:37:35,0.003,0.0,0.0,0.0
19/07/2022,03:38:36,0.003,0.0,0.0,0.0
19/07/2022,03:39:35,0.003,0.0,0.0,0.0
19/07/2022,03:40:43,0.003,0.0,0.0,0.0
19/07/2022,03:41:42,0.004,0.0,0.0,0.0
19/07/2022,03:42:35,0.003,0.0,0.0,0.0
19/07/2022,03:43:35,0.004,0.0,0.0,0.0
19/07/2022,03:44:35,0.003,0.0,0.0,0.0
19/07/2022,03:45:44,0.004,0.0,0.0,0.0
19/07/2022,03:46:35,0.003,0.0,0.0,0.0
19/07/2022,03:47:35,0.003,0.0,0.0,0.0
19/07/2022,03:48:44,0.003,0.0,0.0,0.0
19/07/2022,03:50:36,0.003,0.0,0.0,0.0
19/07/2022,03:51:35,0.002,0.0,0.0,0.0
19/07/2022,03:52:35,0.002,0.0,0.0,0.0
19/07/2022,03:53:35,0.002,0.0,0.0,0.0
19/07/2022,03:54:35,0.002,0.0,0.0,0.0
19/07/2022,03:55:36,0.002,0.0,0.0,0.0
19/07/2022,03:56:35,0.003,0.0,0.0,0.0
19/07/2022,03:57:36,0.004,0.0,0.0,0.0
19/07/2022,03:58:35,0.004,0.0,0.0,0.0
19/07/2022,03:59:36,0.003,0.0,0.0,0.0
19/07/2022,04:00:35,0.003,0.0,0.0,0.0
19/07/2022,04:01:35,0.003,0.0,0.0,0.0
19/07/2022,04:02:36,0.004,0.0,0.0,0.0
19/07/2022,04:03:35,0.002,0.0,0.0,0.0
19/07/2022,04:04:35,0.004,0.0,0.0,0.0
19/07/2022,04:05:35,0.003,0.0,0.0,0.0
19/07/2022,04:06:36,0.004,0.0,0.0,0.0
19/07/2022,04:07:35,0.002,0.0,0.0,0.0
19/07/2022,04:08:35,0.004,0.0,0.0,0.0
19/07/2022,04:09:35,0.004,0.0,0.0,0.0
19/07/2022,04:10:35,0.004,0.0,0.0,0.0
19/07/2022,04:11:35,0.004,0.0,0.0,0.0
19/07/2022,04:12:35,0.004,0.0,0.0,0.0
19/07/2022,04:13:35,0.004,0.0,0.0,0.0
19/07/2022,04:14:36,0.004,0.0,0.0,0.0
19/07/2022,04:15:36,0.004,0.0,0.0,0.0
19/07/2022,04:16:36,0.004,0.0,0.0,0.0
19/07/2022,04:17:36,0.004,0.0,0.0,0.0
19/07/2022,04:18:35,0.004,0.0,0.0,0.0
19/07/2022,04:19:35,0.005,0.0,0.0,0.0
19/07/2022,04:20:35,0.005,0.0,0.0,0.0
19/07/2022,04:21:36,0.005,0.0,0.0,0.0
19/07/2022,04:22:35,0.005,0.0,0.0,0.0
19/07/2022,04:23:35,0.005,0.0,0.0,0.0
19/07/2022,04:24:43,0.005,0.0,0.0,0.0
19/07/2022,04:25:36,0.005,0.0,0.0,0.0
19/07/2022,04:26:36,0.005,0.0,0.0,0.0
19/07/2022,04:27:35,0.005,0.0,0.0,0.0
19/07/2022,04:28:35,0.006,0.0,0.0,0.0
19/07/2022,04:29:35,0.007,0.0,0.0,0.0
19/07/2022,04:30:35,0.005,0.0,0.0,0.0
19/07/2022,04:31:35,0.006,0.0,0.0,0.0
19/07/2022,04:32:36,0.006,0.0,0.0,0.0
19/07/2022,04:33:52,0.005,0.0,0.0,0.0
19/07/2022,04:35:36,0.007,0.0,0.001,0.001
19/07/2022,04:36:35,0.007,0.0,0.001,0.0
19/07/2022,04:37:36,0.007,0.0,0.001,0.0
19/07/2022,04:38:35,0.007,0.0,0.001,0.0
19/07/2022,04:39:36,0.007,0.0,0.001,0.0
19/07/2022,04:40:44,0.007,0.0,0.001,0.0
19/07/2022,04:41:36,0.008,0.0,0.001,0.0
19/07/2022,04:42:48,0.008,0.0,0.001,0.0
19/07/2022,04:44:36,0.009,0.0,0.002,0.001
19/07/2022,04:45:35,0.009,0.0,0.002,0.0
19/07/2022,04:46:35,0.010,0.0,0.002,0.0
19/07/2022,04:47:35,0.010,0.0,0.002,0.0
19/07/2022,04:48:36,0.010,0.0,0.002,0.0
19/07/2022,04:49:35,0.010,0.0,0.003,0.001
19/07/2022,04:50:44,0.012,0.0,0.003,0.0
19/07/2022,04:51:35,0.012,0.0,0.003,0.0
19/07/2022,04:52:36,0.011,0.0,0.003,0.0
19/07/2022,04:53:35,0.012,0.0,0.003,0.0
19/07/2022,04:54:35,0.012,0.0,0.003,0.0
19/07/2022,04:55:36,0.012,0.0,0.004,0.001
19/07/2022,04:56:35,0.013,0.0,0.004,0.0
19/07/2022,04:57:35,0.014,0.0,0.004,0.0
19/07/2022,04:58:35,0.014,0.0,0.004,0.0
19/07/2022,04:59:35,0.014,0.0,0.005,0.001
19/07/2022,05:00:35,0.015,0.0,0.005,0.0
19/07/2022,05:01:36,0.015,0.0,0.005,0.0
19/07/2022,05:02:35,0.016,0.0,0.005,0.0
19/07/2022,05:03:36,0.016,0.0,0.006,0.001
19/07/2022,05:04:35,0.018,0.0,0.006,0.0
19/07/2022,05:05:36,0.017,0.0,0.006,0.0
19/07/2022,05:06:35,0.019,0.0,0.006,0.0
19/07/2022,05:07:35,0.018,0.0,0.007,0.001
19/07/2022,05:08:35,0.020,0.0,0.007,0.0
19/07/2022,05:09:36,0.018,0.0,0.007,0.0
19/07/2022,05:10:36,0.019,0.0,0.008,0.001
19/07/2022,05:11:35,0.020,0.0,0.008,0.0
19/07/2022,05:12:35,0.021,0.0,0.008,0.0
19/07/2022,05:13:35,0.023,0.0,0.009,0.001
19/07/2022,05:14:36,0.022,0.0,0.009,0.0
19/07/2022,05:15:35,0.023,0.0,0.009,0.0
19/07/2022,05:16:35,0.023,0.0,0.01,0.001
19/07/2022,05:17:36,0.024,0.0,0.01,0.0
19/07/2022,05:18:35,0.025,0.0,0.011,0.001
19/07/2022,05:19:35,0.025,0.0,0.011,0.0
19/07/2022,05:20:35,0.026,0.0,0.011,0.0
19/07/2022,05:21:36,0.027,0.0,0.012,0.001
19/07/2022,05:22:44,0.028,0.0,0.012,0.0
19/07/2022,05:23:36,0.029,0.0,0.013,0.001
19/07/2022,05:24:36,0.029,0.0,0.013,0.0
19/07/2022,05:25:35,0.030,0.0,0.014,0.001
19/07/2022,05:26:36,0.032,0.0,0.014,0.0
19/07/2022,05:27:35,0.032,0.0,0.015,0.001
19/07/2022,05:28:35,0.033,0.0,0.015,0.0
19/07/2022,05:29:36,0.034,0.0,0.016,0.001
19/07/2022,05:30:35,0.035,0.0,0.017,0.001
19/07/2022,05:31:35,0.036,0.0,0.017,0.0
19/07/2022,05:32:36,0.037,0.0,0.018,0.001
19/07/2022,05:33:35,0.038,0.0,0.018,0.0
19/07/2022,05:34:35,0.039,0.0,0.019,0.001
19/07/2022,05:35:36,0.040,0.0,0.02,0.001
19/07/2022,05:36:35,0.041,0.0,0.02,0.0
19/07/2022,05:37:48,0.042,0.0,0.021,0.001
19/07/2022,05:39:36,0.043,0.0,0.022,0.001
19/07/2022,05:40:36,0.045,0.0,0.023,0.001
19/07/2022,05:41:35,0.046,0.0,0.024,0.001
19/07/2022,05:42:35,0.047,0.0,0.025,0.001
19/07/2022,05:43:36,0.048,0.0,0.025,0.0
19/07/2022,05:44:35,0.050,0.0,0.026,0.001
19/07/2022,05:45:36,0.051,0.0,0.027,0.001
19/07/2022,05:46:35,0.051,0.0,0.028,0.001
19/07/2022,05:47:44,0.053,0.0,0.029,0.001
19/07/2022,05:48:35,0.054,0.0,0.03,0.001
19/07/2022,05:49:35,0.056,0.0,0.031,0.001
19/07/2022,05:50:36,0.057,0.0,0.032,0.001
19/07/2022,05:51:35,0.059,0.0,0.033,0.001
19/07/2022,05:52:44,0.059,0.0,0.034,0.001
19/07/2022,05:53:35,0.061,0.0,0.035,0.001
19/07/2022,05:54:35,0.061,0.0,0.036,0.001
19/07/2022,05:55:35,0.064,0.0,0.037,0.001
19/07/2022,05:56:36,0.065,0.0,0.038,0.001
19/07/2022,05:57:35,0.066,0.0,0.039,0.001
19/07/2022,05:58:43,0.069,0.0,0.04,0.001
19/07/2022,05:59:36,0.069,0.0,0.041,0.001
19/07/2022,06:00:35,0.070,0.0,0.042,0.001
19/07/2022,06:01:44,0.073,0.0,0.044,0.002
19/07/2022,06:02:35,0.074,0.0,0.045,0.001
19/07/2022,06:03:43,0.076,0.0,0.046,0.001
19/07/2022,06:04:36,0.077,0.0,0.047,0.001
19/07/2022,06:05:36,0.080,0.0,0.048,0.001
19/07/2022,06:06:44,0.082,0.0,0.05,0.002
19/07/2022,06:07:36,0.083,0.0,0.051,0.001
19/07/2022,06:08:35,0.084,0.0,0.052,0.001
19/07/2022,06:09:35,0.087,0.0,0.054,0.002
19/07/2022,06:10:35,0.090,0.0,0.055,0.001
19/07/2022,06:11:35,0.091,0.0,0.057,0.002
19/07/2022,06:12:35,0.093,0.0,0.058,0.001
19/07/2022,06:13:36,0.095,0.0,0.06,0.002
19/07/2022,06:14:35,0.097,0.0,0.062,0.002
19/07/2022,06:15:35,0.099,0.0,0.063,0.001
19/07/2022,06:16:36,0.101,0.0,0.065,0.002
19/07/2022,06:17:36,0.103,0.0,0.067,0.002
19/07/2022,06:18:36,0.106,0.0,0.068,0.001
19/07/2022,06:19:36,0.108,0.0,0.07,0.002
19/07/2022,06:20:35,0.110,0.0,0.072,0.002
19/07/2022,06:21:36,0.113,0.0,0.074,0.002
19/07/2022,06:22:35,0.116,0.0,0.076,0.002
19/07/2022,06:23:35,0.117,0.0,0.078,0.002
19/07/2022,06:24:36,0.120,0.0,0.08,0.002
19/07/2022,06:25:36,0.122,0.0,0.082,0.002
19/07/2022,06:26:36,0.124,0.0,0.084,0.002
19/07/2022,06:27:36,0.127,0.0,0.086,0.002
19/07/2022,06:28:35,0.130,0.0,0.088,0.002
19/07/2022,06:29:35,0.133,0.0,0.09,0.002
19/07/2022,06:30:35,0.135,0.0,0.092,0.002
19/07/2022,06:31:36,0.138,0.0,0.095,0.003
19/07/2022,06:32:36,0.142,0.0,0.097,0.002
19/07/2022,06:33:35,0.145,0.0,0.099,0.002
19/07/2022,06:34:44,0.148,0.0,0.102,0.003
19/07/2022,06:35:35,0.148,0.0,0.104,0.002
19/07/2022,06:36:35,0.153,0.0,0.107,0.003
19/07/2022,06:37:44,0.154,0.0,0.11,0.003
19/07/2022,06:38:35,0.157,0.0,0.112,0.002
19/07/2022,06:39:35,0.160,0.0,0.115,0.003
19/07/2022,06:40:35,0.164,0.0,0.117,0.002
19/07/2022,06:41:36,0.170,0.0,0.12,0.003
19/07/2022,06:42:44,0.174,0.0,0.123,0.003
19/07/2022,06:43:35,0.176,0.0,0.126,0.003
19/07/2022,06:44:36,0.178,0.0,0.129,0.003
19/07/2022,06:45:44,0.180,0.0,0.132,0.003
19/07/2022,06:46:36,0.182,0.0,0.135,0.003
19/07/2022,06:47:35,0.187,0.0,0.138,0.003
19/07/2022,06:48:37,0.191,0.0,0.141,0.003
19/07/2022,06:49:35,0.191,0.0,0.144,0.003
19/07/2022,06:50:35,0.190,0.0,0.147,0.003
19/07/2022,06:51:36,0.198,0.0,0.151,0.004
19/07/2022,06:52:36,0.201,0.0,0.154,0.003
19/07/2022,06:53:36,0.204,0.0,0.157,0.003
19/07/2022,06:54:35,0.208,0.0,0.161,0.004
19/07/2022,06:55:35,0.213,0.0,0.164,0.003
19/07/2022,06:56:35,0.217,0.0,0.168,0.004
19/07/2022,06:57:35,0.220,1.0,0.171,0.003
19/07/2022,06:58:35,0.224,1.0,0.175,0.004
19/07/2022,06:59:36,0.229,1.0,0.179,0.004
19/07/2022,07:00:52,0.232,1.0,0.184,0.005
19/07/2022,07:02:36,0.242,1.0,0.191,0.007
19/07/2022,07:03:35,0.245,1.0,0.195,0.004
19/07/2022,07:04:36,0.250,1.0,0.199,0.004
19/07/2022,07:05:36,0.251,1.0,0.203,0.004
19/07/2022,07:06:36,0.255,1.0,0.207,0.004
19/07/2022,07:07:35,0.263,1.0,0.211,0.004
19/07/2022,07:08:36,0.266,1.0,0.216,0.005
19/07/2022,07:09:36,0.269,1.0,0.22,0.004
19/07/2022,07:10:36,0.272,1.0,0.225,0.005
19/07/2022,07:11:35,0.274,1.0,0.229,0.004
19/07/2022,07:12:36,0.275,1.0,0.234,0.005
19/07/2022,07:13:43,0.284,1.0,0.239,0.005
19/07/2022,07:14:36,0.287,1.0,0.243,0.004
19/07/2022,07:15:35,0.290,1.0,0.248,0.005
19/07/2022,07:16:36,0.289,1.0,0.253,0.005
19/07/2022,07:17:35,0.299,1.0,0.258,0.005
19/07/2022,07:18:36,0.307,1.0,0.263,0.005
19/07/2022,07:19:36,0.311,1.0,0.268,0.005
19/07/2022,07:20:36,0.316,1.0,0.273,0.005
19/07/2022,07:21:44,0.320,1.0,0.279,0.006
19/07/2022,07:22:52,0.324,1.0,0.285,0.006
19/07/2022,07:24:37,0.328,1.0,0.295,0.01
19/07/2022,07:25:35,0.331,1.0,0.3,0.005
19/07/2022,07:26:36,0.333,1.0,0.306,0.006
19/07/2022,07:27:36,0.333,1.0,0.311,0.005
19/07/2022,07:28:35,0.342,1.0,0.317,0.006
19/07/2022,07:29:44,0.347,1.0,0.324,0.007
19/07/2022,07:30:36,0.351,1.0,0.329,0.005
19/07/2022,07:31:36,0.350,1.0,0.334,0.005
19/07/2022,07:32:36,0.354,1.0,0.34,0.006
19/07/2022,07:33:35,0.367,1.0,0.346,0.006
19/07/2022,07:34:36,0.370,1.0,0.352,0.006
19/07/2022,07:35:35,0.373,1.0,0.359,0.007
19/07/2022,07:36:35,0.377,1.0,0.365,0.006
19/07/2022,07:37:36,0.380,1.0,0.371,0.006
19/07/2022,07:38:36,0.386,1.0,0.378,0.007
19/07/2022,07:39:36,0.400,1.0,0.384,0.006
19/07/2022,07:40:35,0.407,1.0,0.391,0.007
19/07/2022,07:41:36,0.410,1.0,0.398,0.007
19/07/2022,07:42:36,0.414,1.0,0.405,0.007
19/07/2022,07:43:44,0.419,1.0,0.412,0.007
19/07/2022,07:45:37,0.426,1.0,0.426,0.014
19/07/2022,07:46:44,0.424,1.0,0.434,0.008
19/07/2022,07:47:44,0.427,1.0,0.441,0.007
19/07/2022,07:48:35,0.430,1.0,0.447,0.006
19/07/2022,07:49:44,0.441,1.0,0.455,0.008
19/07/2022,07:50:35,0.443,1.0,0.462,0.007
19/07/2022,07:51:44,0.449,1.0,0.47,0.008
19/07/2022,07:53:36,0.456,1.0,0.484,0.014
19/07/2022,07:54:44,0.476,1.0,0.493,0.009
19/07/2022,07:55:35,0.493,1.0,0.5,0.007
19/07/2022,07:56:36,0.497,1.0,0.508,0.008
19/07/2022,07:57:52,0.494,1.0,0.519,0.011
19/07/2022,07:59:53,0.496,1.0,0.535,0.016
19/07/2022,08:01:37,0.494,1.0,0.549,0.014
19/07/2022,08:02:44,0.494,1.0,0.558,0.009
19/07/2022,08:03:36,0.506,1.0,0.566,0.008
19/07/2022,08:04:36,0.508,1.0,0.574,0.008
19/07/2022,08:05:44,0.503,1.0,0.584,0.01
19/07/2022,08:06:36,0.552,1.0,0.591,0.007
19/07/2022,08:07:35,0.554,1.0,0.601,0.01
19/07/2022,08:08:35,0.564,1.0,0.61,0.009
19/07/2022,08:09:36,0.584,1.0,0.619,0.009
19/07/2022,08:10:36,0.595,1.0,0.629,0.01
19/07/2022,08:11:35,0.603,1.0,0.639,0.01
19/07/2022,08:12:36,0.613,1.0,0.649,0.01
19/07/2022,08:13:44,0.620,1.0,0.661,0.012
19/07/2022,08:14:36,0.625,1.0,0.67,0.009
19/07/2022,08:15:36,0.633,1.0,0.68,0.01
19/07/2022,08:16:44,0.643,1.0,0.692,0.012
19/07/2022,08:17:35,0.651,1.0,0.702,0.01
19/07/2022,08:18:36,0.658,2.0,0.712,0.01
19/07/2022,08:19:36,0.667,2.0,0.724,0.012
19/07/2022,08:20:36,0.672,2.0,0.735,0.011
19/07/2022,08:21:36,0.681,2.0,0.746,0.011
19/07/2022,08:22:36,0.687,2.0,0.757,0.011
19/07/2022,08:23:36,0.696,2.0,0.769,0.012
19/07/2022,08:24:36,0.703,2.0,0.781,0.012
19/07/2022,08:25:48,0.713,2.0,0.795,0.014
19/07/2022,08:27:36,0.721,2.0,0.816,0.021
19/07/2022,08:28:36,0.731,2.0,0.828,0.012
19/07/2022,08:29:35,0.741,2.0,0.841,0.013
19/07/2022,08:30:36,0.747,2.0,0.853,0.012
19/07/2022,08:31:36,0.758,2.0,0.866,0.013
19/07/2022,08:32:36,0.769,2.0,0.878,0.012
19/07/2022,08:33:35,0.775,2.0,0.891,0.013
19/07/2022,08:34:36,0.782,2.0,0.904,0.013
19/07/2022,08:35:36,0.795,2.0,0.917,0.013
19/07/2022,08:36:36,0.804,2.0,0.931,0.014
19/07/2022,08:37:36,0.811,2.0,0.944,0.013
19/07/2022,08:38:44,0.819,2.0,0.959,0.015
19/07/2022,08:40:37,0.832,2.0,0.985,0.026
19/07/2022,08:41:36,0.841,2.0,0.999,0.014
19/07/2022,08:42:35,0.851,2.0,1.013,0.014
19/07/2022,08:43:36,0.857,2.0,1.027,0.014
19/07/2022,08:44:36,0.854,2.0,1.042,0.015
19/07/2022,08:45:37,0.852,2.0,1.056,0.014
19/07/2022,08:46:35,0.870,2.0,1.07,0.014
19/07/2022,08:47:36,0.891,2.0,1.085,0.015
19/07/2022,08:48:36,0.901,2.0,1.1,0.015
19/07/2022,08:49:36,0.912,2.0,1.115,0.015
19/07/2022,08:50:36,0.923,2.0,1.13,0.015
19/07/2022,08:51:29,0.928,2.0,1.144,0.014
19/07/2022,08:52:36,0.920,2.0,1.161,0.017
19/07/2022,08:53:36,0.918,2.0,1.176,0.015
19/07/2022,08:54:36,0.942,2.0,1.192,0.016
19/07/2022,08:55:35,0.960,2.0,1.207,0.015
19/07/2022,08:56:36,0.971,2.0,1.224,0.017
19/07/2022,08:57:36,0.978,2.0,1.24,0.016
19/07/2022,08:58:36,0.987,2.0,1.256,0.016
19/07/2022,08:59:36,0.994,2.0,1.273,0.017
19/07/2022,09:00:36,1.002,2.0,1.289,0.016
19/07/2022,09:01:36,1.008,2.0,1.306,0.017
19/07/2022,09:02:36,1.018,2.0,1.323,0.017
19/07/2022,09:03:36,1.025,2.0,1.34,0.017
19/07/2022,09:04:36,1.037,2.0,1.357,0.017
19/07/2022,09:05:36,1.047,2.0,1.375,0.018
19/07/2022,09:06:36,1.044,2.0,1.392,0.017
19/07/2022,09:07:36,1.057,2.0,1.41,0.018
19/07/2022,09:08:36,1.070,2.0,1.427,0.017
19/07/2022,09:09:44,1.081,2.0,1.448,0.021
19/07/2022,09:10:44,1.088,3.0,1.466,0.018
19/07/2022,09:11:36,1.095,3.0,1.481,0.015
19/07/2022,09:12:36,1.104,3.0,1.5,0.019
19/07/2022,09:13:36,1.115,3.0,1.518,0.018
19/07/2022,09:14:36,1.124,3.0,1.537,0.019
19/07/2022,09:15:36,1.130,3.0,1.556,0.019
19/07/2022,09:16:35,1.139,3.0,1.575,0.019
19/07/2022,09:17:36,1.147,3.0,1.594,0.019
19/07/2022,09:18:35,1.157,3.0,1.613,0.019
19/07/2022,09:19:36,1.167,3.0,1.632,0.019
19/07/2022,09:20:36,1.175,3.0,1.652,0.02
19/07/2022,09:21:36,1.185,3.0,1.671,0.019
19/07/2022,09:22:36,1.194,3.0,1.691,0.02
19/07/2022,09:23:36,1.204,3.0,1.711,0.02
19/07/2022,09:24:37,1.213,3.0,1.731,0.02
19/07/2022,09:25:36,1.221,3.0,1.752,0.021
19/07/2022,09:26:38,1.231,3.0,1.773,0.021
19/07/2022,09:27:36,1.240,3.0,1.793,0.02
19/07/2022,09:28:36,1.246,3.0,1.814,0.021
19/07/2022,09:29:36,1.251,3.0,1.834,0.02
19/07/2022,09:30:36,1.260,3.0,1.855,0.021
19/07/2022,09:31:36,1.266,3.0,1.876,0.021
19/07/2022,09:32:35,1.275,3.0,1.897,0.021
19/07/2022,09:33:36,1.280,3.0,1.919,0.022
19/07/2022,09:34:36,1.291,3.0,1.94,0.021
19/07/2022,09:35:36,1.301,3.0,1.962,0.022
19/07/2022,09:36:36,1.309,3.0,1.984,0.022
19/07/2022,09:37:36,1.318,3.0,2.005,0.021
19/07/2022,09:38:36,1.327,3.0,2.027,0.022
19/07/2022,09:39:36,1.335,3.0,2.05,0.023
19/07/2022,09:40:35,1.343,3.0,2.072,0.022
19/07/2022,09:41:36,1.347,3.0,2.094,0.022
19/07/2022,09:42:36,1.361,3.0,2.117,0.023
19/07/2022,09:43:36,1.370,3.0,2.14,0.023
19/07/2022,09:44:36,1.371,3.0,2.163,0.023
19/07/2022,09:45:36,1.377,3.0,2.185,0.022
19/07/2022,09:46:36,1.388,3.0,2.209,0.024
19/07/2022,09:47:36,1.395,3.0,2.232,0.023
19/07/2022,09:48:36,1.405,3.0,2.255,0.023
19/07/2022,09:49:35,1.411,3.0,2.279,0.024
19/07/2022,09:50:36,1.418,3.0,2.302,0.023
19/07/2022,09:51:36,1.429,3.0,2.326,0.024
19/07/2022,09:52:35,1.430,3.0,2.35,0.024
19/07/2022,09:53:36,1.437,3.0,2.374,0.024
19/07/2022,09:54:36,1.443,3.0,2.398,0.024
19/07/2022,09:55:36,1.453,3.0,2.422,0.024
19/07/2022,09:56:36,1.466,3.0,2.446,0.024
19/07/2022,09:57:36,1.471,3.0,2.47,0.024
19/07/2022,09:58:35,1.481,3.0,2.495,0.025
19/07/2022,09:59:36,1.494,3.0,2.52,0.025
19/07/2022,10:00:36,1.510,3.0,2.545,0.025
19/07/2022,10:01:36,1.519,3.0,2.57,0.025
19/07/2022,10:02:36,1.521,3.0,2.595,0.025
19/07/2022,10:03:36,1.530,4.0,2.621,0.026
19/07/2022,10:04:36,1.537,4.0,2.646,0.025
19/07/2022,10:05:36,1.540,4.0,2.672,0.026
19/07/2022,10:06:36,1.546,4.0,2.698,0.026
19/07/2022,10:07:36,1.555,4.0,2.724,0.026
19/07/2022,10:08:36,1.560,4.0,2.75,0.026
19/07/2022,10:09:36,1.571,4.0,2.776,0.026
19/07/2022,10:10:36,1.578,4.0,2.802,0.026
19/07/2022,10:11:36,1.584,4.0,2.828,0.026
19/07/2022,10:12:36,1.595,4.0,2.855,0.027
19/07/2022,10:13:36,1.599,4.0,2.881,0.026
19/07/2022,10:14:36,1.603,4.0,2.908,0.027
19/07/2022,10:15:36,1.616,4.0,2.935,0.027
19/07/2022,10:16:36,1.622,4.0,2.962,0.027
19/07/2022,10:17:36,1.630,4.0,2.989,0.027
19/07/2022,10:18:36,1.638,4.0,3.016,0.027
19/07/2022,10:19:36,1.641,4.0,3.043,0.027
19/07/2022,10:20:36,1.655,4.0,3.071,0.028
19/07/2022,10:21:35,1.664,4.0,3.098,0.027
19/07/2022,10:22:36,1.667,4.0,3.126,0.028